Hollywood, FL

9:52 AM EDT on October 21, 2019 (GMT -0400)
North Perry

Weather History for KHWO - August, 2019

Change the Weather History Date:

Wednesday, August 28, 2019

  Actual Average (KFLL) Record (KFLL)
Temperature  
Mean Temperature 86 °F -  
Max Temperature 95 °F 89 °F 97 °F (1964)
Min Temperature 79 °F 74 °F 68 °F (1927)
Cooling Degree Days 21    
Growing Degree Days 36 (Base 50)    
Moisture  
Dew Point 75 °F    
Average Humidity 70    
Maximum Humidity 90    
Minimum Humidity 49    
Precipitation  
Precipitation 0.00 in - - ()
Sea Level Pressure  
Sea Level Pressure 29.93 in    
Wind  
Wind Speed 3 mph (NW)    
Max Wind Speed 14 mph    
Max Gust Speed 18 mph    
Visibility 10 miles    
Events Thunderstorm    
Averages and records for this station are not official NWS values.
T = Trace of Precipitation, MM = Missing Value Source: NWS Daily Summary

Daily Weather History Graph

Daily Weather History Graph

Search for Another Location

Airport or City:

Astronomy

Aug. 28, 2019 Rise Set
Actual Time 6:59 AM EDT 7:44 PM EDT
Civil Twilight 6:35 AM EDT 8:08 PM EDT
Nautical Twilight 6:08 AM EDT 8:35 PM EDT
Astronomical Twilight 5:39 AM EDT 9:04 PM EDT
Moon 4:47 AM EDT (8/28) 6:40 PM EDT (8/28)
Length of Visible Light 13h 32m
Length of Day
12h 45m
Waning Crescent, 5% of the Moon is Illuminated
Aug 28
Waning Crescent
Aug 30
New
Sep 5
First Quarter
Sep 14
Full
Sep 21
Last Quarter

Hourly Weather History & Observations

Time (EDT) Temp. Heat Index Dew Point Humidity Pressure Visibility Wind Dir Wind Speed Gust Speed Precip Events Conditions
12:53 AM 80.1 °F 85.4 °F 75.9 °F 87% 29.97 in 10.0 mi Calm Calm - N/A   Clear
1:53 AM 80.1 °F 85.4 °F 75.9 °F 87% 29.96 in 10.0 mi Calm Calm - N/A   Clear
2:53 AM 79.0 °F - 75.9 °F 90% 29.94 in 10.0 mi Calm Calm - N/A   Clear
3:53 AM 80.1 °F 85.4 °F 75.9 °F 87% 29.94 in 10.0 mi Calm Calm - N/A   Clear
4:53 AM 80.1 °F 85.4 °F 75.9 °F 87% 29.94 in 10.0 mi Calm Calm - N/A   Clear
5:53 AM 80.1 °F 85.4 °F 75.9 °F 87% 29.94 in 10.0 mi Calm Calm - N/A   Clear
6:53 AM 80.1 °F 85.4 °F 75.9 °F 87% 29.95 in 10.0 mi WNW 4.6 mph - N/A   Partly Cloudy
7:53 AM 82.0 °F 90.2 °F 77.0 °F 85% 29.96 in 10.0 mi NW 3.5 mph - N/A   Clear
8:53 AM 84.9 °F 96.6 °F 78.1 °F 80% 29.98 in 10.0 mi WNW 4.6 mph - N/A   Scattered Clouds
9:53 AM 86.0 °F 96.9 °F 77.0 °F 74% 29.98 in 10.0 mi WNW 6.9 mph - N/A   Scattered Clouds
10:53 AM 88.0 °F 97.5 °F 75.0 °F 65% 29.98 in 10.0 mi NW 3.5 mph - N/A   Partly Cloudy
11:53 AM 90.0 °F 100.2 °F 75.0 °F 61% 29.97 in 10.0 mi North - - N/A   Scattered Clouds
12:53 PM 91.0 °F 100.4 °F 73.9 °F 57% 29.96 in 10.0 mi WNW 9.2 mph - N/A   Scattered Clouds
1:53 PM 93.0 °F 101.9 °F 73.0 °F 52% 29.94 in 10.0 mi WNW 8.1 mph 18.4 mph N/A   Partly Cloudy
2:53 PM 93.9 °F 102.1 °F 72.0 °F 49% 29.91 in 10.0 mi NW 11.5 mph - N/A   Partly Cloudy
3:53 PM 93.9 °F 103.4 °F 73.0 °F 51% 29.89 in 10.0 mi NW 8.1 mph - N/A   Scattered Clouds
5:23 PM 90.0 °F 99.0 °F 73.9 °F 59% 29.90 in 10.0 mi NNW 10.4 mph - N/A Thunderstorm Mostly Cloudy
5:32 PM 91.0 °F 101.6 °F 75.0 °F 59% 29.89 in 10.0 mi NNW 12.7 mph - N/A Thunderstorm Thunderstorm
5:51 PM 91.4 °F 100.1 °F 73.4 °F 55% 29.89 in 10.0 mi NNW 12.7 mph - N/A Thunderstorm Mostly Cloudy
5:53 PM 91.0 °F 100.4 °F 73.9 °F 57% 29.89 in 10.0 mi NNW 13.8 mph - N/A Thunderstorm Mostly Cloudy
6:40 PM 91.9 °F 100.7 °F 73.0 °F 54% 29.90 in 10.0 mi NNW 9.2 mph - N/A   Partly Cloudy
6:53 PM 91.0 °F 99.3 °F 73.0 °F 55% 29.90 in 10.0 mi North 8.1 mph - N/A   Partly Cloudy
7:53 PM 84.0 °F 91.2 °F 73.9 °F 72% 29.89 in 10.0 mi Calm Calm - N/A   Partly Cloudy
8:53 PM 84.9 °F 92.1 °F 73.9 °F 69% 29.91 in 10.0 mi South 3.5 mph - N/A   Partly Cloudy
9:53 PM 84.0 °F 91.2 °F 73.9 °F 72% 29.92 in 10.0 mi Calm Calm - N/A   Partly Cloudy
10:53 PM 84.0 °F 91.9 °F 75.0 °F 74% 29.93 in 10.0 mi Calm Calm - N/A   Mostly Cloudy
11:53 PM 84.9 °F 93.3 °F 75.0 °F 72% 29.93 in 10.0 mi Calm Calm - N/A   Mostly Cloudy